Torna al catalogo

STARLINK-31228

AttivoComunicazioniVLEO
NORAD 58842·PAYLOAD·🇺🇸 United States

Lanciato Jan 24, 2024 da Vandenberg Space Force Base

Loading…

Prossimi Passaggi (prossime 24 ore)

TLE

AggiornatoSource: CelesTrak SupGP

Epoca: Sep 14, 2026, 14:19 UTC

1 58842C 24017S   26257.59701389 -.00032535  00000+0 -96142-3 0  2576
2 58842  53.1600  45.3766 0001221  82.4154 139.7641 15.34401277    11

Traccia STARLINK-31228 in tempo reale con AllMySat

Download on the App Store